Weather History for Manistique, MI

Change the Weather History Date:

Saturday, January 19, 2013

  Actual Average Record
Temperature  
Mean Temperature 24 °F -  
Max Temperature 33 °F 25 °F 41 °F (1981)
Min Temperature 15 °F 5 °F -17 °F (1984)
Degree Days  
Heating Degree Days 41    
Moisture  
Dew Point 22 °F    
Average Humidity 87    
Maximum Humidity 93    
Minimum Humidity 68    
Precipitation  
Precipitation 0.00 in - - ()
Sea Level Pressure  
Sea Level Pressure 29.62 in    
Wind  
Wind Speed 5 mph (West)    
Max Wind Speed 26 mph    
Max Gust Speed 41 mph    
Visibility 6 miles    
Events Snow    
Averages and records for this station are not official NWS values.
T = Trace of Precipitation, MM = Missing Value Source: NWS Daily Summary

Daily Weather History Graph

Daily Weather History Graph

Search for Another Location

Airport:

Trip Planner

Search our weather history database for the weather conditions in past years. The results will help you decide how hot, cold, wet, or windy it might be!

Date:

Astronomy

Jan. 19, 2013 Rise Set
Actual Time 8:19 AM EST 5:31 PM EST
Civil Twilight 7:46 AM EST 6:04 PM EST
Nautical Twilight 7:09 AM EST 6:41 PM EST
Astronomical Twilight 6:34 AM EST 7:17 PM EST
Moon 12:01 PM EST (1/19) 1:48 AM EST (1/19)
Length of Visible Light 10h 18m
Length of Day
9h 12m
First Quarter, 57% of the Moon is Illuminated
Jan 19
First Quarter
Jan 26
Full
Feb 3
Last Quarter
Feb 10
New
Feb 17
First Quarter

Hourly Weather History & Observations

Time (EST) Temp. Windchill Dew Point Humidity Pressure Visibility Wind Dir Wind Speed Gust Speed Precip Events Conditions
12:15 AM 21.2 °F 14.9 °F 17.6 °F 86% 29.73 in 10.0 mi NNW 4.6 mph - N/A Snow Light Snow
12:35 AM 21.2 °F 13.6 °F 17.6 °F 86% 29.72 in 10.0 mi North 5.8 mph - N/A Snow Light Snow
12:55 AM 21.2 °F 14.9 °F 17.6 °F 86% 29.72 in 10.0 mi North 4.6 mph - N/A Snow Light Snow
1:15 AM 21.2 °F - 17.6 °F 86% 29.72 in 1.5 mi Calm Calm - N/A Snow Light Snow
1:34 AM 21.2 °F - 17.6 °F 86% 29.73 in 1.0 mi Calm Calm - N/A Snow Light Snow
1:55 AM 21.2 °F - 17.6 °F 86% 29.72 in 4.0 mi Calm Calm - N/A Snow Light Snow
2:15 AM 21.2 °F - 17.6 °F 86% 29.73 in 10.0 mi Calm Calm - N/A   Overcast
2:34 AM 21.2 °F - 17.6 °F 86% 29.74 in 10.0 mi Calm Calm - N/A Snow Light Snow
2:55 AM 21.2 °F - 17.6 °F 86% 29.75 in 10.0 mi Calm Calm - N/A   Overcast
3:14 AM 21.2 °F - 17.6 °F 86% 29.76 in 10.0 mi Calm Calm - N/A   Overcast
3:35 AM 19.4 °F - 17.6 °F 93% 29.75 in 10.0 mi Calm Calm - N/A   Scattered Clouds
3:55 AM 19.4 °F - 15.8 °F 86% 29.75 in 10.0 mi Calm Calm - N/A   Scattered Clouds
4:14 AM 15.8 °F - 12.2 °F 86% 29.75 in 10.0 mi Calm Calm - N/A   Overcast
4:35 AM 17.6 °F 10.7 °F 15.8 °F 93% 29.76 in 10.0 mi WNW 4.6 mph - N/A   Overcast
4:54 AM 19.4 °F 14.3 °F 15.8 °F 86% 29.77 in 10.0 mi West 3.5 mph - N/A   Overcast
5:15 AM 19.4 °F 12.8 °F 15.8 °F 86% 29.77 in 10.0 mi West 4.6 mph - N/A   Overcast
5:34 AM 17.6 °F 10.7 °F 14.0 °F 86% 29.76 in 10.0 mi WNW 4.6 mph - N/A   Mostly Cloudy
5:55 AM 19.4 °F 12.8 °F 15.8 °F 86% 29.78 in 10.0 mi West 4.6 mph - N/A   Mostly Cloudy
6:15 AM 19.4 °F 11.5 °F 17.6 °F 93% 29.79 in 10.0 mi West 5.8 mph - N/A   Overcast
6:34 AM 19.4 °F 12.8 °F 17.6 °F 93% 29.79 in 10.0 mi West 4.6 mph - N/A   Overcast
6:55 AM 19.4 °F 14.3 °F 17.6 °F 93% 29.79 in 10.0 mi West 3.5 mph - N/A   Overcast
7:15 AM 19.4 °F 12.8 °F 17.6 °F 93% 29.79 in 10.0 mi WSW 4.6 mph - N/A   Overcast
7:35 AM 21.2 °F - 17.6 °F 86% 29.77 in 10.0 mi Calm Calm - N/A   Overcast
7:55 AM 19.4 °F - 17.6 °F 93% 29.77 in 10.0 mi Calm Calm - N/A   Overcast
8:14 AM 21.2 °F - 17.6 °F 86% 29.77 in 10.0 mi Calm Calm - N/A   Overcast
8:35 AM 21.2 °F - 17.6 °F 86% 29.76 in 10.0 mi Calm Calm - N/A   Overcast
8:55 AM 21.2 °F - 17.6 °F 86% 29.76 in 10.0 mi Calm Calm - N/A   Overcast
9:15 AM 21.2 °F - 19.4 °F 93% 29.77 in 2.0 mi Calm Calm - N/A Snow Light Snow
9:35 AM 21.2 °F - 19.4 °F 93% 29.76 in 1.8 mi Calm Calm - N/A Snow Light Snow
9:54 AM 23.0 °F - 19.4 °F 86% 29.75 in 1.8 mi Calm Calm - N/A Snow Light Snow
10:15 AM 24.8 °F - 21.2 °F 86% 29.74 in 3.0 mi Calm Calm - N/A Snow Light Snow
10:35 AM 24.8 °F 17.9 °F 21.2 °F 86% 29.73 in 3.0 mi SSE 5.8 mph - N/A Snow Light Snow
10:54 AM 26.6 °F 19.1 °F 23.0 °F 86% 29.72 in 7.0 mi SSE 6.9 mph - N/A Snow Light Snow
11:15 AM 26.6 °F 20.0 °F 23.0 °F 86% 29.70 in 10.0 mi SE 5.8 mph - N/A Snow Light Snow
11:34 AM 26.6 °F 19.1 °F 24.8 °F 93% 29.69 in 2.5 mi SE 6.9 mph - N/A Snow Light Snow
11:55 AM 28.4 °F 19.1 °F 24.8 °F 86% 29.69 in 2.0 mi South 10.4 mph - N/A Snow Light Snow
12:14 PM 28.4 °F 19.7 °F 26.6 °F 93% 29.67 in 1.5 mi South 9.2 mph - N/A Snow Light Snow
12:35 PM 28.4 °F 21.2 °F 26.6 °F 93% 29.65 in 1.8 mi South 6.9 mph - N/A Snow Light Snow
12:55 PM 30.2 °F 23.4 °F 28.4 °F 93% 29.63 in 5.0 mi SSW 6.9 mph - N/A   Overcast
1:15 PM 30.2 °F 26.7 °F 26.6 °F 86% 29.61 in 7.0 mi WSW 3.5 mph - N/A   Overcast
1:35 PM 30.2 °F - 26.6 °F 86% 29.59 in 5.0 mi Calm Calm - N/A   Overcast
1:54 PM 30.2 °F - 26.6 °F 86% 29.58 in 5.0 mi Calm Calm - N/A   Overcast
2:15 PM 30.2 °F 26.7 °F 26.6 °F 86% 29.57 in 5.0 mi West 3.5 mph - N/A Snow Light Snow
2:34 PM 30.2 °F - 26.6 °F 86% 29.54 in 2.5 mi Calm Calm - N/A Snow Light Snow
2:55 PM 30.2 °F 26.7 °F 26.6 °F 86% 29.53 in 4.0 mi NNW 3.5 mph - N/A Snow Light Snow
3:14 PM 30.2 °F 26.7 °F 26.6 °F 86% 29.51 in 4.0 mi East 3.5 mph - N/A   Overcast
3:35 PM 30.2 °F - 28.4 °F 93% 29.49 in 4.0 mi Calm Calm - N/A   Overcast
3:55 PM 30.2 °F - 28.4 °F 93% 29.48 in 3.0 mi Calm Calm - N/A Snow Light Snow
4:14 PM 30.2 °F - 28.4 °F 93% 29.48 in 3.0 mi Calm Calm - N/A   Overcast
4:35 PM 30.2 °F - 28.4 °F 93% 29.47 in 1.0 mi Calm Calm - N/A Snow Light Snow
4:55 PM 30.2 °F 26.7 °F 28.4 °F 93% 29.46 in 0.8 mi South 3.5 mph - N/A Snow Light Snow
5:15 PM 30.2 °F 26.7 °F 28.4 °F 93% 29.44 in 0.8 mi South 3.5 mph - N/A Snow Light Snow
5:35 PM 30.2 °F 25.4 °F 28.4 °F 93% 29.43 in 1.0 mi South 4.6 mph - N/A Snow Light Snow
5:54 PM 32.0 °F 26.4 °F 30.2 °F 93% 29.43 in 1.8 mi SSW 5.8 mph - N/A Snow Light Snow
6:15 PM 32.0 °F 26.4 °F 30.2 °F 93% 29.42 in 2.5 mi SSW 5.8 mph - N/A Snow Light Snow
6:35 PM 33.8 °F 27.7 °F 30.2 °F 87% 29.42 in 4.0 mi SW 6.9 mph - N/A Snow Light Snow
6:54 PM 33.8 °F 29.6 °F 30.2 °F 87% 29.41 in 5.0 mi SW 4.6 mph - N/A   Overcast
7:15 PM 33.8 °F 30.8 °F 30.2 °F 87% 29.41 in 7.0 mi WSW 3.5 mph - N/A   Overcast
7:34 PM 33.8 °F 26.4 °F 30.2 °F 87% 29.41 in 7.0 mi West 9.2 mph - N/A Snow Light Snow
7:55 PM 33.8 °F 25.3 °F 30.2 °F 87% 29.41 in 10.0 mi West 11.5 mph 16.1 mph N/A   Overcast
8:15 PM 33.8 °F 22.5 °F 28.4 °F 81% 29.42 in 5.0 mi WNW 19.6 mph 29.9 mph N/A Snow Light Snow
8:34 PM 32.0 °F 22.5 °F 26.6 °F 80% 29.41 in 10.0 mi WNW 12.7 mph - N/A Snow Light Snow
8:55 PM 30.2 °F 19.8 °F 26.6 °F 86% 29.41 in 10.0 mi WNW 13.8 mph 19.6 mph N/A Snow Light Snow
9:14 PM 30.2 °F 19.3 °F 24.8 °F 80% 29.42 in 10.0 mi WNW 15.0 mph 19.6 mph N/A Snow Light Snow
9:35 PM 30.2 °F 18.1 °F 24.8 °F 80% 29.43 in 10.0 mi WNW 18.4 mph 25.3 mph N/A   Mostly Cloudy
9:55 PM 28.4 °F 14.1 °F 21.2 °F 74% 29.44 in 7.0 mi NW 24.2 mph 31.1 mph N/A Snow Light Snow
10:14 PM 26.6 °F 12.4 °F 19.4 °F 74% 29.46 in 7.0 mi NW 21.9 mph 31.1 mph N/A Snow Light Snow
10:35 PM 24.8 °F 9.3 °F 15.8 °F 69% 29.47 in 7.0 mi NW 24.2 mph 32.2 mph N/A   Overcast
10:55 PM 21.2 °F 5.2 °F 12.2 °F 68% 29.49 in 5.0 mi NW 21.9 mph 41.4 mph N/A Snow Light Snow
11:15 PM 19.4 °F 1.4 °F 12.2 °F 74% 29.49 in 4.0 mi NW 26.5 mph 41.4 mph N/A Snow Light Snow
11:35 PM 19.4 °F 1.8 °F 12.2 °F 74% 29.50 in 2.0 mi NW 25.3 mph 38.0 mph N/A Snow Light Snow
11:54 PM 19.4 °F 1.4 °F 12.2 °F 74% 29.50 in 3.0 mi WNW 26.5 mph 38.0 mph N/A Snow Light Snow